Location: *
(12.5665°N, 8.3471°E)
Time: 05:01:02
(UTC+00:00)

CZ-4B R/B - Pass Details

Date: 23 September 2019
Orbit: 488 x 651 km, 97.8° (Epoch: 22 October)

Event Time Altitude Azimuth Distance (km) Brightness Sun altitude
Rises 04:06:04 0° 360° (N) 2,938 6.6 -17.8°
Reaches altitude 10° 04:08:24 10° 353° (N) 2,014 5.6 -17.3°
Maximum altitude 04:12:30 40° 284° (WNW) 920 3.5 -16.3°
Enters shadow 04:15:39 15° 219° (SW) 1,639 4.8 -15.5°
